Regional Weather Roundup
Issued by NWS

Home | Current Version | Previous Version | Text Only | Print | Product List | Glossary On
Versions: 1 2 3 4 5 6 7 8 9 10 11 12 13 14 15 16 17 18 19 20 21 22 23 24 25 26 27
000
ASPQ40 PGUM 190712
RWRPQ
WEATHER ROUNDUP FOR THE MARIANAS AND MICRONESIA
NATIONAL WEATHER SERVICE TIYAN GU
500 PM CHST FRI JAN 19 2018

GUZ001>004-190800-
MARIANA ISLANDS-

CITY           SKY/WX    TMP DP  RH WIND       PRES   REMARKS
GUAM AIRPORT   MOSUNNY   84  73  70 E18       29.85R HX  91
ANDERSEN AFB   MOSUNNY   82  72  69 E15       29.85R
ROTA AIRPORT   MOSUNNY   82  72  69 E16       29.85R
TINIAN AP      MOSUNNY   82  72  69 NE14      29.84R
SAIPAN AP      MOSUNNY   84  75  74 E16       29.84R HX  92

$$

PMZ161-190800-
REPUBLIC OF PALAU-

CITY           SKY/WX    TMP DP  RH WIND       PRES   REMARKS
KOROR AP       CLOUDY    82  75  78 E7        29.73F
KOROR WSO      CLOUDY    84  77  79 NE6       29.74R HX  94

$$

PMZ171>174-190800-
FEDERATED STATES OF MICRONESIA-

CITY           SKY/WX    TMP DP  RH WIND       PRES   REMARKS
YAP AIRPORT    CLOUDY    79  77  94 E9        29.73F
CHUUK AP       PTSUNNY   84  79  84 VRB5      29.72R HX  96
POHNPEI AP     NOT AVBL
POHNPEI WSO    CLOUDY    81  77  89 E7        29.76R
KOSRAE AP      NOT AVBL

$$

PMZ181-190800-
REPUBLIC OF THE MARSHALL ISLANDS-

CITY           SKY/WX    TMP DP  RH WIND       PRES   REMARKS
KWAJALEIN AP   PTCLDY    82  75  78 E15       29.75R
MAJURO AP      MOCLDY    84  77  79 E9        29.72R HX  94
MAJURO WSO     CLOUDY    82  75  78 E13       29.71R

$$





USA.gov is the U.S. government's official web portal to all federal, state and local government web resources and services.